TimeCDT,TemperatureF,Dew PointF,Humidity,Sea Level PressureIn,VisibilityMPH,Wind Direction,Wind SpeedMPH,Gust SpeedMPH,PrecipitationIn,Events,Conditions,WindDirDegrees,DateUTC
12:52 AM,34.0,21.9,61,30.01,10.0,NE,12.7,-,N/A,,Overcast,50,2013-03-24 05:52:00
1:52 AM,32.0,26.1,79,30.00,8.0,NE,6.9,-,N/A,,Overcast,40,2013-03-24 06:52:00
2:52 AM,30.9,26.1,82,30.00,4.0,ENE,13.8,18.4,0.00,Snow,Light Snow,70,2013-03-24 07:52:00
3:02 AM,30.2,26.6,86,29.98,3.0,East,10.4,-,0.00,Snow,Light Snow,80,2013-03-24 08:02:00
3:18 AM,30.2,26.6,86,29.97,2.5,ENE,9.2,-,0.00,Snow,Light Snow,60,2013-03-24 08:18:00
3:26 AM,30.2,26.6,86,29.96,2.0,ENE,9.2,-,0.00,Snow,Light Snow,60,2013-03-24 08:26:00
3:41 AM,30.2,26.6,86,29.96,1.8,NE,5.8,-,0.00,Snow,Light Snow,40,2013-03-24 08:41:00
3:48 AM,30.2,26.6,86,29.95,2.0,NE,6.9,-,0.00,Snow,Light Snow,40,2013-03-24 08:48:00
3:52 AM,30.0,27.0,88,29.97,2.0,ENE,6.9,-,0.00,Snow,Light Snow,60,2013-03-24 08:52:00
4:09 AM,30.2,26.6,86,29.94,1.5,NE,8.1,-,0.00,Snow,Light Snow,50,2013-03-24 09:09:00
4:52 AM,30.0,27.0,88,29.91,3.0,NE,10.4,-,0.01,Snow,Light Snow,50,2013-03-24 09:52:00
5:52 AM,30.0,27.0,88,29.92,10.0,NNE,6.9,-,0.00,,Overcast,30,2013-03-24 10:52:00
6:22 AM,30.2,26.6,86,29.91,1.8,NE,6.9,-,0.00,Snow,Light Snow,40,2013-03-24 11:22:00
6:33 AM,30.2,26.6,86,29.90,1.8,NNE,8.1,-,0.01,Snow,Light Snow,30,2013-03-24 11:33:00
6:41 AM,30.2,26.6,86,29.90,1.5,NNE,6.9,-,0.01,Snow,Light Snow,30,2013-03-24 11:41:00
6:52 AM,30.0,27.0,88,29.91,1.5,NNE,6.9,-,0.01,Snow,Light Snow,30,2013-03-24 11:52:00
7:08 AM,30.2,26.6,86,29.89,1.8,NE,10.4,-,0.01,Snow,Light Snow,40,2013-03-24 12:08:00
7:20 AM,30.2,26.6,86,29.88,1.2,NE,8.1,-,N/A,Snow,Light Snow,50,2013-03-24 12:20:00
7:28 AM,30.2,26.6,86,29.88,1.2,NE,9.2,-,0.01,Snow,Light Snow,40,2013-03-24 12:28:00
7:37 AM,30.2,26.6,86,29.88,1.2,NNE,8.1,-,0.01,Snow,Light Snow,30,2013-03-24 12:37:00
7:45 AM,30.2,26.6,86,29.87,1.5,NE,12.7,-,0.01,Snow,Light Snow,40,2013-03-24 12:45:00
7:52 AM,30.0,27.0,88,29.88,1.5,NE,10.4,-,0.01,Snow,Light Snow,40,2013-03-24 12:52:00
8:40 AM,30.2,26.6,86,29.82,2.0,NNE,15.0,-,0.01,Snow,Light Snow,30,2013-03-24 13:40:00
8:48 AM,30.2,26.6,86,29.82,1.8,NNE,11.5,20.7,0.01,Snow,Light Snow,20,2013-03-24 13:48:00
8:52 AM,30.0,27.0,88,29.84,1.5,NNE,16.1,23.0,0.01,Snow,Light Snow,20,2013-03-24 13:52:00
9:43 AM,30.2,26.6,86,29.81,2.0,NNE,11.5,20.7,0.00,Snow,Light Snow,30,2013-03-24 14:43:00
9:52 AM,30.9,27.0,85,29.83,3.0,NNE,11.5,-,0.00,Snow,Light Snow,30,2013-03-24 14:52:00
10:26 AM,32.0,26.6,80,29.82,8.0,NNE,9.2,-,0.00,,Overcast,30,2013-03-24 15:26:00
10:52 AM,32.0,27.0,82,29.83,2.5,NNE,10.4,-,0.00,Snow,Light Snow,30,2013-03-24 15:52:00
10:59 AM,32.0,26.6,80,29.82,2.5,NNE,9.2,-,0.00,Snow,Light Snow,30,2013-03-24 15:59:00
11:29 AM,32.0,28.4,87,29.82,1.2,NNE,9.2,-,0.00,Snow,Light Snow,20,2013-03-24 16:29:00
11:52 AM,32.0,28.4,87,29.81,1.0,North,6.9,-,N/A,Snow,Light Snow,10,2013-03-24 16:52:00
12:00 PM,32.0,28.4,87,29.81,0.8,North,9.2,-,0.01,Snow,Light Snow,10,2013-03-24 17:00:00
12:16 PM,32.0,28.4,87,29.80,0.5,North,9.2,-,0.02,Fog-Snow,Snow,10,2013-03-24 17:16:00
12:52 PM,32.0,28.9,88,29.80,0.8,NNE,9.2,-,0.03,Snow,Light Snow,20,2013-03-24 17:52:00
1:00 PM,32.0,28.4,87,29.78,1.0,North,11.5,-,0.00,Snow,Light Snow,10,2013-03-24 18:00:00
1:16 PM,33.8,28.4,81,29.77,1.5,NNE,11.5,19.6,0.00,Snow,Light Snow,20,2013-03-24 18:16:00
1:27 PM,33.8,28.4,81,29.77,1.8,NNE,11.5,18.4,0.00,Snow,Light Snow,20,2013-03-24 18:27:00
1:34 PM,33.8,28.4,81,29.77,1.5,NNE,11.5,17.3,0.00,Snow,Light Snow,20,2013-03-24 18:34:00
1:52 PM,33.1,28.9,85,29.78,1.2,North,11.5,20.7,0.00,Snow,Light Snow,10,2013-03-24 18:52:00
2:27 PM,32.0,28.4,87,29.75,0.8,North,15.0,20.7,0.00,Snow,Light Snow,10,2013-03-24 19:27:00
2:52 PM,32.0,28.9,88,29.76,0.8,North,12.7,21.9,0.01,Snow,Light Snow,10,2013-03-24 19:52:00
3:12 PM,32.0,28.4,87,29.73,0.8,North,10.4,23.0,0.01,Snow,Light Snow,10,2013-03-24 20:12:00
3:22 PM,32.0,28.4,87,29.74,0.8,North,9.2,-,0.01,Snow,Light Snow,10,2013-03-24 20:22:00
3:25 PM,32.0,28.4,87,29.74,1.0,North,15.0,19.6,0.01,Snow,Light Snow,10,2013-03-24 20:25:00
3:52 PM,32.0,28.9,88,29.75,1.2,North,12.7,19.6,0.01,Snow,Light Snow,10,2013-03-24 20:52:00
4:42 PM,32.0,28.4,87,29.75,0.8,North,11.5,21.9,0.00,Snow,Light Snow,360,2013-03-24 21:42:00
4:52 PM,32.0,28.9,88,29.76,0.5,North,13.8,19.6,0.01,Fog-Snow,Light Snow,360,2013-03-24 21:52:00
5:28 PM,30.2,28.4,93,29.76,0.8,North,12.7,-,0.01,Snow,Light Snow,360,2013-03-24 22:28:00
5:52 PM,30.9,28.0,89,29.79,0.8,North,11.5,20.7,0.02,Snow,Light Snow,360,2013-03-24 22:52:00
6:22 PM,30.2,28.4,93,29.78,1.0,North,11.5,-,0.00,Snow,Light Snow,360,2013-03-24 23:22:00
6:34 PM,30.2,28.4,93,29.79,0.8,North,10.4,19.6,0.00,Snow,Light Snow,350,2013-03-24 23:34:00
6:52 PM,30.9,28.0,89,29.81,0.8,North,10.4,19.6,0.01,Snow,Light Snow,360,2013-03-24 23:52:00
7:11 PM,30.2,28.4,93,29.80,0.8,North,12.7,-,0.00,Snow,Light Snow,350,2013-03-25 00:11:00
7:19 PM,30.2,28.4,93,29.80,1.0,North,13.8,20.7,0.00,Snow,Light Snow,360,2013-03-25 00:19:00
7:52 PM,30.0,28.0,92,29.83,1.2,NNW,11.5,-,0.01,Snow,Light Snow,340,2013-03-25 00:52:00
8:52 PM,30.0,28.0,92,29.84,1.2,NNW,12.7,20.7,0.02,Snow,Light Snow,340,2013-03-25 01:52:00
8:57 PM,30.2,28.4,93,29.82,1.5,NNW,10.4,-,0.00,Snow,Light Snow,340,2013-03-25 01:57:00
9:52 PM,30.0,28.0,92,29.85,1.2,NW,10.4,-,0.01,Snow,Light Snow,320,2013-03-25 02:52:00
10:35 PM,30.2,26.6,86,29.82,1.5,NNW,12.7,18.4,0.01,Snow,Light Snow,340,2013-03-25 03:35:00
10:52 PM,30.0,27.0,88,29.84,2.0,NNW,11.5,-,0.01,Snow,Light Snow,340,2013-03-25 03:52:00
11:16 PM,30.2,26.6,86,29.83,1.8,NNW,10.4,-,0.01,Snow,Light Snow,340,2013-03-25 04:16:00
11:34 PM,30.2,26.6,86,29.83,2.0,North,11.5,-,0.01,Snow,Light Snow,350,2013-03-25 04:34:00
11:42 PM,30.2,26.6,86,29.83,1.8,North,11.5,-,0.01,Snow,Light Snow,350,2013-03-25 04:42:00
11:52 PM,30.0,27.0,88,29.85,1.8,NNW,10.4,-,0.02,Snow,Light Snow,340,2013-03-25 04:52:00